Location: Gisborne
(38.6530°S, 178.0040°E)
Time: 17:19:38
(UTC+13:00)

Meteor 2-21 - Pass Details

Date: 24 January 2019
Orbit: 933 x 967 km, 82.5° (Epoch: 20 February)

Event Time Altitude Azimuth Distance (km) Brightness Sun altitude
Exits shadow 23:43:30 78° 60° (ENE) 968 4.2 -27.9°
Maximum altitude 23:43:42 79° 84° (E) 964 4.3 -27.9°
Drops below altitude 10° 23:49:49 10° 170° (S) 2,676 7.5 -28.4°
Sets 23:52:19 0° 171° (S) 3,628 8.3 -28.6°
